Powrót do katalogu

STARLINK-32020

AktywnyŁącznośćVLEO
NORAD 60201·PAYLOAD·🇺🇸 United States

Wystrzelony Jul 3, 2024 z Cape Canaveral Space Force Station

Loading…

Następne Przeloty (najbliższe 24 godziny)

TLE

ŚwieżeSource: CelesTrak SupGP

Epoka: Sep 15, 2026, 02:04 UTC

1 60201C 24124U   26258.08659722 -.00039790  00000+0 -12795-2 0  2587
2 60201  53.1566 161.3775 0001232  92.3201 236.5531 15.31723465    15

Śledź STARLINK-32020 w czasie rzeczywistym z AllMySat

Download on the App Store